GFSGBSN_sfc_30mbdewp_132.txt.gz
Dewpoint
55 55 55 56 57 58 60 61 60 60 59 59 58 58 58 58 57 57 56 55 54 53 51 51 50 47 39 44 42 39 38 34 31 28 21 18 14 13 11 11 12 6 11 13 12 11 11
54 54 54 54 54 56 56 56 57 58 59 59 59 59 58 58 57 57 57 56 55 53 51 51 49 46 38 44 39 34 35 32 28 25 15 14 13 14 14 15 14 15 14 13 11 11 11
53 53 54 55 55 53 53 54 55 55 55 55 57 58 58 58 58 57 57 57 55 54 51 51 50 44 39 47 36 37 36 30 25 19 17 16 13 12 15 14 17 14 12 11 11 11 11
53 53 53 54 53 53 54 53 54 53 54 53 53 55 57 58 58 57 58 57 56 54 52 51 50 42 45 45 41 41 38 35 26 22 19 18 15 13 13 15 13 11 11 8 11 15 12
49 50 51 51 53 54 54 53 54 54 55 55 54 55 55 57 57 57 57 57 55 52 52 51 42 41 44 45 41 39 37 35 19 19 18 17 16 15 14 11 10 11 8 10 11 14 13
47 47 47 47 50 52 54 54 54 54 55 55 55 55 56 56 56 57 56 53 52 50 48 42 41 44 44 43 38 25 34 22 15 17 13 15 17 13 13 10 5 9 9 10 10 11 12
47 46 47 46 48 50 51 51 51 51 53 53 54 55 56 57 57 54 53 52 49 45 42 46 42 44 40 39 36 21 23 17 19 17 17 17 13 10 11 12 12 11 11 11 12 14 13
46 47 47 47 47 48 50 49 49 50 52 54 55 55 55 55 56 54 53 49 47 37 39 42 44 42 43 41 39 39 21 24 17 19 14 12 12 14 16 16 15 15 14 14 15 16 14
46 47 46 45 47 47 47 49 47 48 49 52 54 54 53 54 53 52 51 49 40 36 38 38 41 40 41 42 41 41 25 21 21 20 15 16 13 14 14 14 14 16 15 15 15 12 10
47 48 47 46 46 46 44 46 48 45 47 48 52 54 53 53 51 49 49 50 46 38 29 29 33 36 41 40 37 41 35 32 25 29 21 18 19 18 17 17 16 16 18 17 15 7 6
46 46 47 48 47 46 42 43 46 46 46 48 49 53 53 52 47 48 48 50 47 32 4 18 30 37 40 35 26 34 37 32 29 23 22 21 17 18 17 17 18 16 13 10 9 7 7
46 46 45 47 47 46 44 42 45 46 46 47 47 53 52 49 48 47 48 46 38 27 10 14 31 34 37 36 19 27 31 33 31 25 21 20 18 16 17 15 13 13 10 11 13 9 6
46 46 45 46 46 45 45 44 44 44 45 47 48 53 52 49 46 47 45 41 30 24 23 17 18 34 34 31 19 17 25 18 20 23 24 20 22 18 17 18 12 11 9 8 7 7 6
46 46 46 46 46 45 45 44 43 44 44 48 49 52 51 49 47 46 44 38 24 24 22 25 17 22 29 23 16 12 15 19 12 15 12 13 9 13 13 13 11 10 10 7 4 5 7
45 46 46 45 45 45 44 44 44 45 45 47 50 50 48 49 47 47 41 29 22 27 27 22 16 15 20 18 20 11 14 16 16 12 13 9 9 14 12 13 12 12 9 12 9 12 9
44 45 46 46 45 44 43 43 43 44 44 46 45 45 45 50 48 45 37 29 30 30 28 25 16 16 14 16 16 16 14 14 12 13 14 13 9 14 12 12 12 12 13 9 12 7 7
43 43 45 45 45 44 43 43 43 44 43 45 43 38 43 48 46 40 31 31 32 33 32 26 24 25 20 16 16 15 14 15 15 14 14 16 13 12 11 10 11 10 10 12 13 12 7
42 42 43 44 44 44 44 42 42 42 42 44 41 31 43 46 36 34 32 34 34 32 32 31 29 30 27 21 19 17 15 16 21 18 12 15 15 11 11 15 17 13 11 12 8 8 11
40 41 41 41 42 43 44 43 42 41 42 42 37 34 43 43 30 30 33 33 33 33 31 31 29 29 29 23 22 20 20 23 23 16 14 15 13 10 11 12 18 12 15 15 20 19 8
38 39 40 42 43 42 44 45 42 41 42 39 35 30 36 38 35 31 28 30 30 33 32 32 32 32 27 25 24 21 17 21 23 25 27 19 14 13 11 13 15 13 18 21 17 12 11
37 38 40 41 42 43 43 43 44 40 42 38 35 31 30 28 31 31 29 28 29 29 32 33 31 32 30 26 20 19 20 18 20 22 19 17 12 15 16 16 16 15 14 17 17 15 14
37 38 39 40 41 41 42 44 43 41 42 37 32 31 31 29 30 30 31 27 27 27 31 30 30 32 30 28 25 23 22 18 15 20 17 19 15 16 12 15 16 15 18 17 17 18 18
38 38 39 40 40 40 40 42 44 42 40 36 37 36 31 27 28 29 26 27 26 28 30 31 30 30 30 31 33 30 26 26 25 24 20 23 23 19 17 17 16 13 15 16 17 19 16
36 36 37 38 39 40 41 40 39 42 40 37 35 37 32 26 28 27 26 27 28 28 26 30 30 29 30 28 25 26 27 27 28 26 26 20 18 17 14 15 12 14 20 23 23 23 23
35 35 37 37 39 40 40 41 39 43 41 36 38 36 32 27 26 27 27 27 26 28 29 29 29 34 30 30 27 23 21 20 22 23 22 21 19 16 14 14 16 15 20 24 24 20 25
35 35 36 37 39 39 39 40 40 42 41 34 35 38 36 27 27 27 27 27 26 26 27 29 33 34 31 27 29 23 21 23 18 21 25 23 22 17 18 16 12 13 26 27 25 17 26
36 36 36 37 38 39 39 41 40 40 41 36 33 37 36 30 33 30 26 27 29 28 27 28 30 29 29 27 25 23 21 21 16 17 21 21 19 17 18 17 18 20 27 26 15 10 26
36 36 37 37 38 40 39 40 40 40 40 38 35 37 33 32 33 36 36 30 30 29 26 29 29 30 27 27 27 26 21 20 19 21 21 19 18 18 18 19 15 26 27 21 21 28 27
35 36 36 37 38 39 39 40 39 38 38 38 34 37 37 31 32 37 36 36 37 33 29 31 28 30 29 27 27 24 21 23 21 17 27 19 19 20 20 20 23 28 25 28 28 28 27

GFSGBSN_sfc_30mbdewp_135.txt.gz
Dewpoint
55 55 55 56 57 59 61 61 60 60 59 59 58 58 58 58 58 57 57 56 55 54 52 52 52 48 41 46 45 40 35 33 29 28 16 17 14 13 11 11 13 7 12 14 14 13 12
55 54 54 54 54 55 56 57 57 57 59 59 59 59 59 58 58 58 57 57 56 54 53 52 52 45 43 45 39 35 34 30 27 21 14 14 13 15 16 16 14 15 15 14 13 12 12
54 54 54 54 54 55 54 54 53 54 55 55 56 57 58 58 58 58 58 57 56 55 53 52 52 42 42 46 38 38 37 30 25 20 19 16 14 14 16 15 17 15 13 12 12 12 11
53 54 53 54 53 53 53 54 53 53 53 54 54 54 53 56 57 57 57 57 57 55 53 52 49 41 46 48 43 44 39 37 29 24 20 19 15 15 14 16 14 12 12 9 12 15 14
51 53 52 52 52 52 54 54 53 53 54 54 54 54 53 54 57 57 57 57 56 54 52 52 43 43 44 47 43 39 41 39 24 21 19 18 18 16 15 12 12 12 8 10 11 14 13
48 49 49 49 49 49 52 54 54 54 54 54 53 53 54 55 55 56 56 55 53 51 48 42 41 44 45 43 39 27 35 26 15 16 15 15 17 14 13 11 5 9 9 10 11 12 14
46 47 48 48 46 48 50 53 53 52 52 53 53 54 55 55 56 55 53 52 49 45 43 45 43 44 43 41 40 22 29 18 20 20 18 18 11 10 12 13 12 12 11 11 13 15 15
47 46 47 47 46 47 49 51 50 49 50 51 54 54 55 55 55 54 54 50 47 37 41 43 46 44 44 43 43 40 20 20 18 22 14 15 17 17 16 15 14 15 14 14 16 17 16
47 46 46 47 46 46 48 49 49 48 48 49 53 54 54 55 54 53 50 49 39 37 39 39 41 41 42 43 41 41 24 23 22 21 16 23 20 15 15 15 15 16 15 15 15 16 11
47 47 47 47 46 46 47 47 47 47 46 48 50 53 53 53 51 51 49 50 44 39 32 28 33 37 41 41 37 41 35 27 24 30 21 21 19 15 15 15 16 16 18 17 17 10 7
47 47 46 47 47 47 46 44 44 45 46 45 48 52 53 53 48 48 47 50 42 34 -5 17 32 39 41 36 31 34 38 34 34 28 23 19 19 19 19 20 19 17 18 13 10 9 9
47 46 47 46 46 47 47 44 42 44 46 45 46 51 52 49 48 48 49 47 37 26 -2 14 33 35 38 37 27 31 34 33 32 26 21 22 20 16 17 17 18 14 12 13 14 10 8
47 47 46 46 46 46 46 45 44 44 45 45 46 50 52 49 45 48 47 43 30 22 22 15 25 36 35 34 30 24 32 28 29 28 26 25 24 19 17 18 14 13 14 12 9 8 6
46 45 46 46 46 46 46 45 44 45 43 44 47 50 52 50 48 47 46 37 22 23 23 25 18 34 30 27 20 14 27 21 15 16 21 17 10 17 16 22 21 13 14 10 6 5 5
45 45 45 46 46 46 45 45 45 45 44 43 47 49 49 49 48 47 42 29 21 25 27 21 17 19 25 21 21 12 22 23 18 15 13 11 9 14 13 13 13 13 10 13 10 13 10
43 45 44 45 46 46 45 45 44 44 44 45 45 45 45 50 48 45 38 30 29 30 29 25 14 16 16 19 18 14 13 15 15 14 18 14 10 14 12 13 13 13 15 12 14 8 6
41 41 44 45 45 46 46 45 44 43 43 45 43 38 44 49 47 41 31 28 30 33 32 27 23 22 17 18 19 17 17 17 16 15 15 16 12 13 11 11 11 12 12 14 15 12 8
38 41 42 45 45 46 46 45 43 43 43 43 41 31 44 48 36 35 32 33 32 32 33 31 30 30 25 19 17 16 16 18 23 16 12 17 16 11 12 16 18 13 13 15 12 10 11
40 40 43 46 45 46 45 45 45 42 42 41 36 34 43 44 29 30 34 34 33 32 31 30 29 29 29 22 21 20 20 24 23 17 14 16 14 11 12 14 17 13 14 17 20 18 11
39 40 42 43 44 44 45 45 45 43 42 40 35 29 36 38 37 31 32 31 32 33 32 32 31 31 28 26 25 22 18 21 25 26 26 20 16 15 12 14 17 14 17 18 15 13 10
39 41 39 42 42 42 43 45 45 44 42 38 35 31 31 27 31 33 30 29 30 30 32 32 31 32 28 25 22 22 20 18 20 23 20 19 13 15 16 16 16 15 15 18 18 15 13
36 38 41 39 43 41 41 42 45 44 43 37 31 31 31 29 30 31 31 28 27 29 31 30 30 32 31 28 25 23 22 18 17 20 18 20 17 16 14 16 16 16 18 18 18 19 19
34 36 37 37 37 41 43 42 44 43 43 35 37 35 30 28 30 28 28 29 27 29 31 31 31 31 31 31 33 33 30 27 23 19 18 19 21 24 19 18 18 17 18 17 17 19 17
32 34 37 38 38 38 41 42 43 43 41 36 36 35 30 26 28 27 25 27 28 28 28 30 30 30 31 30 28 27 27 28 30 27 26 26 27 28 19 17 13 17 18 18 17 19 21
32 32 35 37 38 39 40 40 40 41 42 38 38 33 31 25 27 27 27 25 28 29 29 27 30 32 29 31 27 23 22 22 23 25 25 24 22 18 16 15 17 17 18 21 22 19 23
32 33 34 37 38 39 39 39 39 43 42 40 38 38 32 25 26 26 27 27 26 26 27 30 33 35 32 30 28 22 20 22 19 23 24 23 22 19 21 17 13 15 24 28 26 18 25
34 34 35 37 38 39 40 40 40 40 41 38 37 38 34 28 32 29 26 27 28 27 25 27 29 29 31 27 27 24 22 25 22 21 22 23 22 21 19 18 19 21 27 27 17 14 26
34 35 35 37 37 39 40 40 40 40 41 38 36 38 33 31 33 36 36 29 29 28 25 28 28 29 27 25 24 24 24 23 20 21 21 20 20 19 18 20 16 26 27 20 22 28 28
35 35 36 37 37 38 39 40 39 39 41 38 34 37 35 30 34 37 37 37 35 37 28 31 27 29 28 27 27 26 23 23 21 18 25 19 20 19 19 19 24 28 25 28 28 28 28

GFSGBSN_sfc_30mbdewp_138.txt.gz
Dewpoint
56 56 56 58 59 60 61 60 60 59 59 59 58 58 58 58 58 58 57 57 56 55 54 53 53 51 47 46 45 39 33 31 28 25 16 17 17 16 16 13 13 12 11 12 13 13 14
55 55 54 54 54 55 56 58 59 59 59 59 59 59 59 59 58 58 58 57 57 56 54 53 53 48 48 42 42 35 31 30 28 24 17 15 15 15 16 15 15 15 14 14 15 14 14
54 54 54 54 54 55 54 54 54 54 55 55 56 57 58 58 58 58 58 58 57 56 54 53 52 47 47 44 43 40 37 32 27 25 21 16 15 16 17 16 17 16 14 13 13 14 13
53 54 54 54 54 54 53 53 53 53 53 53 54 54 54 53 55 57 57 57 57 56 54 52 50 47 44 48 46 46 45 41 36 31 22 21 16 17 17 17 15 12 14 7 13 14 14
51 52 53 53 53 53 53 52 54 53 53 54 54 54 53 53 54 55 57 57 57 56 53 53 48 47 42 47 44 40 44 42 36 24 20 18 18 18 16 13 10 13 1 9 10 14 14
49 50 52 52 52 51 51 52 54 54 53 53 54 53 53 53 53 54 55 55 55 53 51 45 44 46 44 40 40 29 36 37 20 17 17 17 17 15 12 9 3 5 6 8 7 12 13
47 49 49 50 50 49 48 49 53 54 54 54 55 55 54 54 54 55 53 52 49 47 46 46 44 43 42 42 40 24 35 22 21 24 25 20 20 15 10 12 12 11 11 9 10 14 16
48 49 48 48 49 48 47 49 52 52 51 51 52 52 53 55 55 55 55 50 49 39 42 44 44 45 45 44 43 36 28 24 23 24 22 22 19 18 17 14 13 13 12 11 14 16 17
48 47 47 47 46 47 47 49 50 49 49 49 50 54 54 54 54 54 52 49 41 39 41 42 43 43 42 44 42 41 23 24 24 25 23 23 23 18 16 14 14 14 12 12 14 16 16
48 47 47 47 46 47 47 48 48 48 48 46 48 52 54 54 51 49 47 49 45 41 34 28 35 38 40 40 37 40 40 24 24 25 26 26 28 26 21 15 14 12 16 16 15 15 9
47 48 47 46 46 47 47 47 47 47 46 47 46 51 53 53 46 46 44 50 47 40 11 17 30 38 40 35 32 35 39 35 30 29 29 21 20 20 19 18 19 18 19 17 14 13 13
46 47 47 47 46 46 46 46 46 44 45 45 47 48 52 51 50 46 50 48 40 24 -0 17 30 33 35 34 26 35 36 35 34 32 29 25 22 18 17 19 20 15 15 15 16 13 9
43 46 47 47 46 46 46 45 45 44 44 45 46 48 52 50 44 49 52 45 28 14 13 13 25 32 29 31 28 29 34 31 26 26 25 26 24 20 18 16 16 15 17 12 9 9 4
41 43 46 47 47 46 46 46 45 44 44 44 45 49 49 50 50 51 48 37 20 5 11 22 20 31 26 29 23 26 30 28 26 25 21 22 18 22 22 18 19 19 17 12 3 -1 2
38 40 44 45 46 47 46 46 46 44 45 44 44 46 46 50 50 50 42 29 13 9 15 19 21 23 25 26 22 21 27 24 24 23 14 14 11 18 18 20 23 16 14 15 13 9 8
36 39 42 45 45 46 46 46 46 45 44 44 42 42 43 51 50 46 38 28 22 25 25 19 11 15 15 20 20 16 22 21 24 23 21 17 12 13 13 14 16 15 15 12 11 7 2
38 40 40 43 45 45 45 46 46 45 44 43 40 37 43 51 49 41 31 26 23 30 30 25 15 13 16 19 20 18 18 18 18 18 18 16 16 14 13 13 12 13 13 12 14 11 6
38 38 40 42 43 45 45 45 46 45 44 43 38 33 46 48 37 36 33 29 27 28 30 30 30 24 18 19 20 19 19 20 22 17 15 19 17 13 12 16 16 14 13 14 13 10 11
37 37 38 40 40 43 45 43 45 46 44 42 35 36 44 46 31 31 33 30 30 25 27 28 27 29 30 21 20 20 20 25 24 18 17 19 15 13 13 16 16 13 14 15 16 18 14
37 37 38 39 40 43 43 44 44 45 44 42 36 29 36 39 37 32 28 28 30 32 28 27 26 29 28 26 26 22 22 23 27 26 23 21 19 19 11 13 17 16 15 15 16 16 15
36 36 38 39 39 43 43 45 45 45 45 43 37 32 34 28 32 33 30 26 25 29 32 31 28 27 26 25 26 24 22 21 23 27 23 23 21 22 20 18 19 18 16 17 17 16 16
35 36 39 39 40 42 45 45 44 45 45 40 33 32 34 25 27 30 33 30 26 28 31 31 30 28 29 26 27 24 24 21 22 21 21 23 21 21 16 16 16 17 19 18 20 20 21
34 36 37 38 38 39 43 44 45 45 44 34 38 34 28 25 26 27 30 29 26 28 31 29 30 30 30 31 34 34 33 30 26 23 21 23 26 23 18 19 20 20 25 24 21 21 20
33 35 36 38 37 40 43 43 44 44 42 36 37 33 29 25 23 26 24 30 27 26 31 31 32 29 33 37 33 33 34 31 29 27 26 27 26 26 23 20 17 23 19 19 21 18 16
34 34 35 36 37 39 39 42 43 44 43 38 38 37 29 22 25 24 23 24 31 32 33 30 31 32 31 30 27 24 23 22 24 28 29 31 27 24 21 18 16 17 18 19 20 16 18
34 34 33 35 37 38 39 41 41 43 42 40 39 39 37 26 23 23 24 24 23 29 34 33 34 34 32 27 25 19 12 14 17 24 25 26 29 24 21 17 12 17 20 25 26 18 21
34 34 34 34 37 38 38 38 40 43 41 39 38 41 37 28 26 26 24 24 24 23 22 25 31 30 32 26 22 16 12 17 15 17 22 22 24 23 21 21 20 20 24 27 17 17 25
35 35 35 35 36 38 39 39 38 39 40 40 37 40 38 30 32 32 29 27 27 25 21 26 28 28 28 22 18 15 17 20 17 17 21 21 21 22 21 23 17 21 25 20 22 28 29
34 35 35 35 36 38 39 40 39 39 41 39 36 40 41 35 34 37 38 38 33 26 23 27 21 22 23 20 16 16 18 20 18 15 21 18 20 20 20 19 26 26 23 27 29 27 30

GFSGBSN_sfc_30mbdewp_141.txt.gz
Dewpoint
55 55 56 60 61 60 60 60 59 59 58 58 58 58 58 58 58 58 58 58 57 57 56 55 54 54 50 44 42 39 29 33 30 25 20 19 19 18 16 14 14 13 12 13 14 14 14
55 54 54 54 55 56 59 60 60 59 59 59 59 58 58 58 59 58 58 58 58 57 56 54 54 53 48 43 44 41 36 32 32 26 19 17 16 17 16 16 15 17 14 13 13 14 15
54 54 54 54 54 54 55 55 54 55 56 58 59 59 59 59 59 58 58 58 58 57 56 54 54 51 47 45 45 42 41 37 31 27 22 19 17 16 17 15 17 14 11 10 10 10 12
53 53 54 53 53 54 53 53 53 53 53 54 54 55 54 54 54 55 57 57 57 57 56 54 54 50 46 46 47 45 44 43 41 32 25 21 18 18 17 17 13 10 10 5 9 13 13
51 52 53 53 54 53 53 52 51 53 54 53 54 53 53 53 53 54 55 56 57 57 55 53 52 48 44 47 44 41 43 42 40 33 22 17 21 20 19 15 11 11 -1 6 10 12 11
50 51 51 52 53 52 52 52 53 53 54 54 53 55 54 54 53 53 55 55 55 54 53 53 49 46 46 41 41 35 29 43 37 28 23 23 23 20 15 10 4 6 7 4 5 12 12
49 48 51 51 52 51 51 51 51 53 54 54 53 54 53 53 53 54 54 53 50 48 49 46 43 43 40 39 39 31 37 40 30 27 26 25 20 16 13 12 11 7 6 6 5 9 14
48 48 49 50 50 51 50 49 49 51 54 54 54 54 54 54 54 54 55 51 50 40 42 46 46 45 44 45 42 39 34 29 27 25 27 25 19 18 19 16 11 7 6 6 8 11 14
49 48 48 47 47 49 49 48 49 51 52 52 52 53 52 52 54 53 51 49 45 42 43 41 42 42 42 43 42 42 33 31 28 27 25 23 21 18 16 13 11 9 9 9 9 12 14
47 49 49 48 47 46 47 48 48 50 49 50 49 51 53 53 51 49 50 50 47 44 36 31 33 36 37 40 39 42 41 35 30 28 27 26 25 24 25 20 14 9 9 12 12 13 9
46 47 48 48 48 47 46 46 47 48 48 47 47 49 53 54 43 46 44 47 49 45 23 18 31 35 36 37 31 32 37 38 30 26 27 26 26 23 20 18 14 12 20 17 15 14 12
42 43 45 47 48 47 46 46 46 46 47 47 47 47 53 52 50 44 44 47 44 30 21 16 26 28 31 34 30 32 35 37 35 28 29 28 24 20 17 17 19 19 16 15 14 12 9
41 42 43 45 47 47 47 47 46 46 45 45 46 47 51 50 43 46 48 45 29 16 16 11 19 25 26 28 28 27 29 34 30 29 29 30 28 24 18 16 18 15 14 11 12 12 9
39 40 41 42 45 47 47 47 46 46 45 44 44 48 47 50 49 50 49 38 22 12 12 14 17 25 23 23 26 23 27 25 27 22 16 21 21 23 21 15 14 14 14 12 5 4 3
36 37 39 40 42 45 46 47 46 46 45 45 46 45 45 47 49 49 43 30 21 13 9 10 15 22 21 23 23 22 24 24 24 23 19 15 17 21 20 18 15 19 18 16 14 14 11
33 36 38 39 41 42 45 46 47 46 46 45 40 41 40 46 49 48 38 28 21 15 16 9 10 15 12 18 22 18 21 23 22 25 23 18 16 18 16 20 21 20 16 13 11 7 4
35 36 36 39 41 41 45 46 47 46 46 46 39 37 36 48 49 42 31 29 22 23 25 19 13 11 9 10 18 16 14 19 24 24 23 19 15 15 14 14 14 18 14 13 12 11 8
34 36 36 38 40 41 44 46 46 47 46 45 40 32 40 47 36 35 33 30 26 22 27 26 28 17 10 12 14 16 14 17 21 20 21 20 19 16 13 14 15 14 13 13 15 11 9
34 35 36 37 39 41 43 45 46 46 47 42 37 34 46 43 30 31 34 31 26 22 20 24 23 22 21 19 14 15 17 26 25 19 18 20 17 14 14 17 15 13 14 13 14 16 15
34 34 35 36 38 40 42 44 46 45 46 43 38 32 37 39 36 33 31 27 26 26 25 26 24 22 23 22 20 20 22 23 26 22 21 22 19 16 12 19 21 16 14 14 15 16 14
35 35 36 37 38 39 41 42 44 45 46 44 37 32 33 29 33 33 32 25 24 25 25 28 28 26 23 20 19 21 23 23 24 26 24 22 17 23 22 19 20 19 17 16 17 15 15
35 36 36 37 38 39 40 42 43 44 45 41 32 34 32 27 28 34 32 32 28 24 27 24 24 24 25 24 22 27 29 30 29 25 23 25 24 25 20 19 18 17 17 16 17 18 19
34 35 36 36 37 37 39 40 43 43 45 38 36 40 29 25 26 28 32 28 30 23 23 26 27 26 28 28 33 36 35 33 34 32 27 26 29 27 23 21 18 17 22 21 19 19 18
35 35 34 35 37 39 39 40 42 45 43 37 38 38 33 25 22 24 23 29 27 27 29 28 29 32 34 38 39 39 38 35 33 29 29 28 29 24 19 22 17 18 22 21 23 22 17
35 34 34 35 37 38 38 38 40 43 44 40 41 37 35 26 19 20 21 20 28 28 33 31 34 36 38 35 33 30 30 31 30 27 27 32 24 19 20 18 15 14 17 18 16 16 17
35 33 34 35 36 38 38 39 39 41 46 42 40 40 36 30 26 19 19 19 21 26 26 30 33 37 36 33 32 25 21 19 15 21 26 28 29 25 19 15 10 11 19 21 22 19 20
35 35 35 35 36 38 38 39 38 40 44 42 40 40 37 32 27 25 26 21 23 29 28 31 33 34 35 28 26 21 14 13 15 15 22 23 25 22 18 15 13 14 20 24 18 17 21
35 35 35 36 36 37 38 40 38 43 42 41 39 40 37 33 33 31 26 26 23 22 27 31 33 32 31 28 24 19 12 11 11 11 18 19 18 18 18 13 11 17 24 23 21 28 25
35 35 36 36 36 37 37 40 38 43 41 40 38 40 42 36 36 35 36 36 36 31 26 24 29 24 28 22 17 12 12 16 15 16 14 16 17 14 16 15 21 22 23 27 27 25 27

GFSGBSN_sfc_30mbdewp_144.txt.gz
Dewpoint
55 55 56 57 60 60 60 60 59 58 58 58 58 58 58 58 58 58 58 58 58 58 57 57 56 56 53 44 40 35 33 33 33 31 25 19 18 18 16 14 13 12 10 12 16 15 15
54 55 54 54 55 56 58 60 60 59 59 58 58 58 58 58 58 58 58 58 58 58 58 57 56 55 50 44 44 43 39 37 35 31 25 19 16 16 16 16 14 16 15 12 12 12 13
53 54 54 54 54 54 55 54 55 56 56 57 59 59 58 58 59 59 58 57 57 57 57 57 56 54 49 46 45 44 42 41 36 30 25 21 18 16 17 15 15 14 10 8 9 9 10
52 53 54 54 53 54 53 53 53 54 54 54 54 55 56 57 56 56 56 56 56 57 57 57 56 53 48 47 47 45 45 42 39 37 29 24 21 19 17 16 15 10 8 6 5 8 13
51 52 53 53 53 53 53 53 52 52 52 54 53 54 54 53 53 54 54 55 56 57 57 55 53 52 47 47 45 45 43 42 41 41 33 22 21 22 21 16 12 10 5 3 9 11 11
49 51 51 51 52 53 53 52 52 52 52 53 54 53 54 54 53 53 54 55 55 54 54 54 53 48 47 42 42 39 34 39 40 38 28 24 25 23 20 15 7 5 8 6 4 12 11
49 49 50 51 51 52 52 51 51 52 52 54 54 53 54 53 53 54 54 53 50 49 49 47 45 45 41 45 40 38 34 37 40 34 26 26 24 18 16 14 9 10 7 7 6 11 11
49 49 48 48 49 50 51 51 51 50 50 53 54 53 54 54 54 53 53 49 50 41 42 47 47 46 45 44 41 38 36 37 34 28 27 26 24 22 17 19 15 13 9 7 5 5 9
48 49 48 48 48 49 49 49 50 50 50 52 54 54 53 53 54 53 51 50 50 48 42 44 43 44 44 44 42 41 33 34 29 27 26 25 23 23 18 18 15 13 10 8 7 8 13
46 47 48 48 48 48 48 48 48 48 50 51 51 51 52 52 50 50 48 49 53 51 37 37 38 41 42 42 40 42 42 38 32 28 27 27 26 24 22 21 18 17 14 9 8 9 7
44 45 46 46 47 49 48 47 47 48 48 49 49 50 51 52 46 46 46 52 53 48 26 27 32 36 37 40 35 37 41 40 35 31 30 29 27 26 25 24 25 22 18 14 12 13 13
42 43 42 43 46 48 48 48 46 46 47 48 48 47 48 51 50 50 47 50 46 32 24 24 31 31 32 34 34 30 34 39 40 37 34 29 29 27 26 24 22 17 17 17 16 14 11
41 41 42 42 44 46 47 48 48 46 46 47 47 46 48 50 44 48 49 45 33 24 23 19 20 21 26 29 33 31 27 31 33 33 33 28 26 28 23 19 18 17 15 11 11 11 11
37 40 41 41 42 43 46 47 47 47 46 46 46 47 46 47 50 50 46 37 25 22 19 14 15 18 22 24 26 29 24 26 32 32 28 28 26 27 26 22 17 16 14 12 6 8 9
36 37 38 40 40 41 42 46 46 47 46 45 44 45 45 45 48 49 42 30 25 22 18 18 14 17 20 21 23 25 24 23 25 32 27 17 21 24 26 23 18 14 14 14 13 16 14
35 36 37 38 39 41 41 42 45 47 47 46 43 41 40 45 49 46 38 32 29 24 21 19 13 16 14 18 20 22 21 22 23 26 29 24 19 18 20 21 21 16 18 19 17 11 10
36 36 37 37 38 39 40 42 43 46 48 47 43 39 37 44 47 41 31 33 28 24 22 18 15 12 12 16 21 20 17 18 22 23 25 23 21 17 17 18 17 18 19 17 16 14 8
36 36 36 37 38 38 40 41 42 45 47 47 41 32 38 46 35 36 32 33 31 25 23 23 22 23 19 15 13 18 19 17 20 23 23 24 21 18 15 15 15 18 19 17 15 10 12
36 36 36 36 37 38 37 40 42 44 46 45 36 36 42 42 28 31 35 33 30 27 25 29 26 21 21 18 13 14 21 28 26 20 23 24 20 19 17 16 16 14 15 16 17 18 17
36 37 36 35 36 37 38 40 42 44 46 44 33 31 38 40 33 29 31 28 28 28 25 25 26 29 22 19 19 19 17 26 26 23 21 25 21 20 17 16 22 17 15 14 15 16 17
37 37 37 37 37 37 38 40 42 43 45 44 33 31 36 30 32 32 28 29 25 26 26 26 28 30 27 24 24 20 24 25 26 27 22 24 20 26 24 23 23 22 23 22 16 15 16
37 37 37 37 37 37 37 40 41 42 44 41 31 32 36 30 32 29 28 30 27 22 24 24 26 26 27 26 28 31 33 30 24 23 24 26 23 27 25 21 20 20 21 23 23 25 23
37 37 37 37 38 36 37 39 40 42 42 39 33 39 35 30 29 29 29 26 28 29 25 24 23 25 25 26 34 34 37 38 35 32 31 31 31 27 22 22 22 26 24 23 21 19 18
37 37 37 36 36 36 37 39 40 41 42 38 35 39 34 29 29 29 26 26 26 27 31 28 25 25 27 40 40 38 37 37 37 35 35 33 32 31 23 21 18 22 21 20 22 23 22
38 37 35 35 36 36 37 38 39 40 40 40 38 38 35 30 33 23 23 24 25 26 29 31 35 38 40 38 35 30 30 31 32 33 36 35 31 27 21 18 20 17 18 19 19 19 18
38 36 35 36 36 37 38 38 39 39 40 41 40 39 39 33 30 27 22 22 24 26 27 30 39 42 39 35 33 25 23 26 26 29 31 33 32 27 24 18 15 17 15 19 19 19 21
38 37 36 36 36 37 38 39 38 38 40 41 40 39 37 33 32 35 32 27 21 22 26 29 36 38 39 33 26 23 23 23 24 21 27 30 31 28 25 22 19 16 17 22 16 18 21
38 37 36 36 36 37 38 39 38 39 39 40 38 42 38 34 30 29 33 33 26 22 28 29 32 35 34 28 23 26 28 22 20 20 23 21 20 22 20 18 15 15 17 19 24 28 26
37 37 36 36 36 37 38 38 38 40 39 41 37 44 42 36 36 41 40 39 36 34 33 34 32 32 32 30 25 21 21 19 17 16 17 22 20 20 16 17 20 24 25 27 27 26 27

GFSGBSN_sfc_30mbdewp_147.txt.gz
Dewpoint
55 55 55 55 57 60 61 60 59 58 57 57 57 57 57 58 58 58 58 58 58 58 58 58 58 57 54 48 46 36 36 36 35 33 31 27 20 18 17 17 16 12 12 13 15 15 15
54 54 54 54 54 55 56 58 60 59 58 58 58 58 58 58 58 58 58 58 58 57 57 58 57 56 52 46 48 39 39 38 35 35 32 27 19 17 14 15 15 15 15 15 12 15 14
52 53 54 54 54 54 54 54 54 54 55 55 58 58 58 58 58 58 59 58 57 57 57 57 57 55 51 48 49 47 46 41 41 36 29 27 20 19 18 17 19 16 13 11 11 10 13
52 52 53 54 53 53 53 54 54 53 53 54 54 55 55 57 58 58 57 56 56 56 57 57 57 54 49 50 50 48 47 45 42 38 33 30 24 21 19 19 17 15 14 8 10 9 13
52 52 51 52 53 53 52 53 53 52 52 53 54 53 54 54 54 54 54 54 55 56 56 57 54 52 49 51 47 47 46 44 43 40 40 35 21 21 23 19 17 14 8 8 8 9 13
50 51 51 52 52 52 52 53 52 51 51 52 53 53 53 54 54 54 54 54 55 54 54 55 54 49 49 45 45 45 44 43 41 41 39 26 22 23 23 20 15 11 11 9 9 10 12
49 50 50 50 51 51 53 53 52 51 52 52 53 54 53 54 53 53 53 53 50 49 51 48 48 47 44 45 46 40 37 31 34 40 35 27 23 22 23 22 19 16 9 7 7 12 11
50 50 49 49 49 49 51 51 51 51 51 50 51 54 53 54 54 53 53 49 47 44 43 46 48 48 49 47 44 42 39 32 35 38 35 30 24 25 25 22 18 14 12 10 11 12 12
47 48 49 48 48 49 49 50 50 51 51 51 51 52 53 54 53 52 51 50 52 50 43 43 44 43 46 46 45 45 36 35 37 36 32 27 27 28 25 22 17 17 14 12 11 10 12
45 47 47 47 48 49 49 48 48 48 49 48 52 52 52 52 49 50 47 50 53 51 36 37 40 41 43 45 43 45 44 33 34 31 30 28 27 25 21 19 18 15 16 14 13 9 7
44 45 45 46 46 48 48 49 48 47 47 48 50 51 52 51 46 46 45 52 54 50 25 32 35 42 42 42 41 42 44 42 35 32 30 29 27 27 26 22 24 23 23 19 15 13 14
43 43 44 44 45 46 47 47 48 47 47 47 49 50 50 50 49 48 51 52 48 32 24 27 32 33 38 41 41 37 41 42 41 39 39 33 32 31 28 28 27 27 18 17 17 16 12
40 41 43 43 44 45 45 47 47 48 47 47 47 48 48 48 44 48 52 46 30 26 28 22 28 31 32 35 39 40 30 37 37 36 37 38 36 35 31 24 21 18 17 14 13 12 11
39 39 40 41 42 43 45 45 46 47 47 47 47 47 47 47 49 49 49 38 26 25 22 21 20 23 24 27 32 37 32 26 28 36 34 35 34 36 31 22 20 17 17 14 9 11 13
37 38 38 39 40 41 42 43 45 46 47 47 46 46 45 45 47 47 42 29 26 23 23 21 27 21 18 22 25 30 33 32 26 29 33 33 29 29 29 25 21 22 16 18 15 16 14
36 37 38 38 39 39 40 41 42 45 46 47 45 43 41 43 48 44 36 31 31 27 22 22 26 26 19 20 22 26 27 27 24 25 33 35 31 23 20 26 25 18 19 15 18 13 12
37 37 37 38 38 38 39 40 41 43 45 46 44 38 40 44 46 39 29 32 33 30 26 24 22 22 19 16 20 28 24 25 25 24 26 30 32 24 19 20 21 20 19 19 20 17 9
38 38 38 38 38 38 38 39 40 41 42 44 39 33 41 45 34 34 31 35 34 30 28 25 23 24 21 23 20 26 28 26 26 26 25 29 28 24 18 19 20 19 18 20 16 14 17
37 37 37 37 37 38 38 39 39 41 41 41 35 33 41 41 29 28 31 31 33 31 30 25 27 30 28 26 20 20 23 28 25 23 26 26 27 18 17 17 16 14 16 21 22 19 13
37 38 36 35 36 37 38 38 38 39 39 40 32 28 36 41 34 26 27 29 31 33 32 27 27 31 29 28 27 21 25 27 28 26 23 26 23 22 18 18 18 15 15 17 20 18 16
37 38 38 38 38 38 38 38 39 39 40 39 32 30 35 30 32 29 25 26 28 28 31 28 26 26 27 29 26 24 28 27 25 27 22 26 20 24 25 23 23 23 21 23 23 23 16
37 37 37 38 38 38 38 38 39 39 40 37 31 30 33 33 35 33 27 27 25 27 28 27 25 26 29 30 29 28 31 30 25 24 24 27 24 26 21 24 23 22 22 23 24 24 24
39 38 38 38 38 38 38 38 39 39 40 34 35 36 35 32 33 32 29 25 26 27 29 28 27 26 28 30 35 34 35 37 37 33 31 31 29 24 19 23 24 22 23 23 24 24 23
42 40 39 38 38 37 38 38 38 39 39 37 34 34 32 27 32 32 30 29 27 27 28 30 31 27 28 39 39 38 37 37 37 34 35 31 30 30 24 22 18 22 26 25 24 23 22
42 42 41 39 38 37 37 38 38 39 40 39 38 36 31 28 28 31 33 28 27 27 28 29 31 39 40 37 33 31 31 32 34 35 35 34 30 27 22 24 22 21 22 24 25 24 25
42 42 41 40 38 38 38 38 38 39 39 38 37 39 34 28 29 31 31 33 27 27 28 28 41 42 41 36 32 26 23 27 27 30 34 35 32 26 28 22 19 20 20 21 23 17 22
40 41 41 40 38 38 38 38 38 38 38 39 37 39 35 29 28 32 32 32 31 27 27 27 37 38 39 32 29 26 24 28 26 26 28 30 30 27 26 23 26 24 18 22 15 17 22
42 41 40 39 38 37 38 38 38 39 39 39 36 40 36 31 29 35 38 35 35 33 27 29 33 35 34 30 29 29 28 26 25 25 27 28 28 27 28 25 21 23 17 17 22 28 24
43 41 39 38 37 37 37 37 38 39 39 39 35 39 41 36 33 38 42 41 40 39 37 33 31 33 34 31 31 28 26 25 22 18 22 24 24 24 24 21 24 27 28 30 31 28 27

GFSGBSN_sfc_30mbdewp_153.txt.gz
Dewpoint
55 55 55 55 56 56 57 58 60 60 59 58 58 57 57 57 57 57 57 57 58 58 58 57 57 57 54 48 45 47 47 40 39 35 33 33 31 23 16 16 15 15 14 15 17 16 19
53 54 54 54 55 55 55 54 55 56 57 58 58 57 57 57 57 57 57 58 58 58 57 57 57 57 52 46 48 48 44 41 42 39 38 37 30 21 17 16 16 16 17 14 14 15 19
51 52 54 54 54 54 53 53 53 53 53 54 54 55 55 56 57 58 58 58 58 58 57 56 57 56 52 48 51 50 50 49 48 47 44 38 29 23 19 17 19 17 15 14 13 12 16
51 51 52 53 54 54 53 53 53 53 52 52 54 54 54 54 54 54 54 54 55 56 56 56 57 55 49 51 52 51 51 50 50 49 47 44 35 23 20 20 19 15 14 13 13 11 15
52 51 50 51 53 53 52 51 53 52 50 50 51 53 53 54 54 53 53 53 54 54 55 55 54 52 48 52 50 51 52 50 48 47 46 42 27 24 22 20 17 17 11 12 12 11 10
49 51 52 51 50 51 51 51 50 52 51 51 51 52 53 53 54 53 53 53 53 54 54 54 54 49 50 46 46 47 49 50 47 44 42 39 29 24 23 20 17 14 12 11 9 9 11
50 50 51 51 51 51 51 51 51 51 51 51 51 52 53 53 54 53 53 51 48 49 50 49 48 48 47 49 49 46 44 45 43 42 40 33 34 32 29 22 20 18 14 14 16 15 11
50 49 50 49 50 50 50 51 51 51 51 51 50 50 52 53 53 53 53 46 46 47 41 43 45 45 49 50 47 46 46 36 35 37 37 34 31 37 33 26 23 23 21 19 20 17 12
48 48 48 49 49 49 49 49 50 50 50 50 50 49 48 50 53 52 50 49 52 51 41 41 42 41 42 45 45 45 46 42 32 30 33 36 35 34 27 25 24 24 22 21 18 12 12
48 47 48 48 48 48 49 50 50 50 50 50 50 50 49 50 48 49 46 52 54 50 35 35 40 41 42 43 41 45 46 43 39 34 30 35 38 37 35 31 27 24 25 22 16 13 11
47 47 47 46 47 47 47 47 48 48 49 49 49 50 51 52 48 45 47 52 52 48 23 32 38 43 43 41 41 43 46 45 40 36 34 34 35 37 36 35 29 26 24 20 18 16 14
46 46 46 46 46 45 46 46 46 47 48 48 47 49 51 50 49 48 51 51 48 33 22 29 36 40 40 41 41 42 45 45 43 36 34 34 34 32 32 33 30 27 23 19 18 17 17
44 45 45 45 45 45 44 45 44 45 46 47 47 48 50 50 44 49 48 46 32 25 28 26 28 40 40 40 40 40 42 42 40 37 35 33 33 35 37 37 37 25 19 19 17 15 19
43 43 43 43 44 44 45 45 44 43 44 45 46 47 48 47 48 49 45 34 24 27 25 25 26 33 36 39 39 39 39 39 41 38 36 33 32 36 38 37 35 26 23 23 23 20 18
42 42 42 42 42 43 43 43 44 44 43 43 45 45 45 46 47 46 37 25 27 27 27 25 24 26 31 33 34 38 38 38 39 40 38 37 35 35 37 38 38 31 27 26 25 30 24
40 41 41 41 42 42 42 42 42 43 43 44 40 41 41 44 47 44 33 28 29 35 32 28 22 25 24 24 29 33 33 37 37 40 42 39 35 37 35 25 37 36 26 25 31 24 22
39 40 41 41 41 41 41 41 41 41 41 42 38 35 41 45 45 38 28 29 28 30 31 31 25 27 26 20 20 27 28 32 36 36 39 37 35 33 31 27 26 33 35 35 32 30 24
39 39 41 42 41 41 41 41 40 40 40 39 36 29 40 45 34 32 29 29 30 28 32 33 31 27 26 25 21 23 28 30 28 24 32 38 36 32 32 34 27 26 25 33 29 27 28
37 38 40 41 41 41 41 40 40 40 39 37 30 32 40 43 27 28 32 30 28 28 28 31 32 30 29 26 22 23 23 30 30 27 25 32 34 29 27 27 22 31 34 28 30 29 26
37 37 37 38 40 41 40 40 40 40 39 35 29 23 30 36 36 31 30 29 27 26 28 31 32 32 30 28 29 25 25 28 28 27 29 32 33 28 24 24 28 18 24 26 30 30 29
38 38 38 38 38 39 39 39 39 39 38 33 29 23 29 25 27 30 30 30 27 25 26 30 29 32 30 28 28 27 27 27 26 26 29 31 29 31 32 32 32 30 32 29 29 32 25
38 38 39 39 39 38 38 39 39 39 38 32 25 23 28 27 28 30 29 27 26 28 24 26 28 27 32 31 29 25 28 27 24 24 24 31 28 29 29 29 31 32 32 31 27 24 24
39 39 39 39 39 39 39 39 39 39 37 32 30 33 28 20 22 23 26 28 29 30 28 24 26 27 29 31 32 31 33 33 31 26 27 29 28 27 24 28 29 27 28 29 26 26 22
40 40 40 40 40 40 39 39 39 39 38 32 31 30 25 17 19 20 23 25 26 28 31 29 25 26 29 31 36 37 37 37 35 34 32 29 27 26 26 26 20 24 27 27 24 24 26
41 41 42 41 41 41 40 40 39 39 39 33 34 30 26 18 17 17 19 21 24 30 31 32 30 29 30 32 29 27 28 32 33 35 34 33 28 25 25 23 23 22 25 24 22 20 24
41 41 42 42 42 42 41 40 40 39 39 37 33 34 30 24 19 23 24 28 26 29 30 33 36 33 34 33 28 23 20 22 25 31 35 34 31 27 27 22 19 21 22 26 26 17 24
41 41 41 42 42 42 42 41 40 40 39 38 34 35 31 25 24 25 25 27 30 29 28 32 33 35 34 30 27 23 21 26 21 24 28 30 29 26 26 23 24 25 24 28 18 14 23
41 42 42 41 42 42 42 42 42 41 39 38 35 37 33 27 24 27 28 24 26 29 24 31 33 34 34 28 26 27 27 29 28 26 27 28 27 26 26 24 20 27 26 21 21 24 23
40 41 42 42 41 41 42 42 42 41 39 37 32 37 37 30 25 31 29 31 32 32 31 31 31 32 32 29 29 29 27 28 27 24 33 26 26 25 26 24 27 28 25 26 26 23 26

GFSGBSN_sfc_30mbdewp_156.txt.gz
Dewpoint
55 55 55 55 56 56 57 57 59 60 59 59 59 58 57 57 57 57 57 57 57 58 58 58 57 57 54 49 45 47 49 42 39 37 35 35 34 25 16 16 15 15 15 16 16 17 20
54 54 54 54 55 54 54 54 55 55 55 56 57 58 58 57 57 57 57 57 57 57 58 57 57 57 52 45 49 49 49 49 46 44 42 42 34 23 19 17 16 16 17 17 14 16 24
52 52 54 54 54 54 53 53 53 53 53 54 54 54 55 55 57 57 58 58 58 58 58 57 57 56 52 48 51 51 50 50 49 47 45 42 37 26 21 19 19 18 15 16 14 13 16
52 51 51 53 54 54 53 52 52 52 51 51 53 54 54 54 54 54 54 54 54 55 56 56 57 55 48 52 52 51 51 50 51 50 48 48 42 36 22 22 20 17 15 13 15 13 15
51 52 51 52 53 53 53 51 51 52 51 50 50 51 53 53 54 53 53 53 53 54 55 56 54 52 47 52 50 51 52 50 49 49 48 46 37 26 23 22 20 18 16 12 13 13 14
49 50 52 51 51 51 51 50 50 50 51 51 50 51 52 53 53 53 53 53 53 54 54 54 54 49 50 46 48 49 50 51 48 46 43 40 30 27 24 23 23 19 14 12 11 10 11
49 50 51 51 51 51 51 51 51 51 51 51 51 51 52 53 53 53 52 51 47 48 49 48 48 49 47 50 50 47 47 46 45 43 40 34 37 35 33 26 24 19 15 13 14 14 15
49 49 50 50 50 50 50 51 51 51 51 50 50 50 50 51 53 53 52 47 46 47 41 44 43 42 45 49 47 46 47 41 40 40 40 35 35 39 38 31 26 23 21 20 21 21 16
48 48 48 49 49 50 49 50 50 50 51 50 50 50 49 48 50 50 48 48 51 49 40 40 42 41 41 43 44 45 46 44 39 35 37 37 37 37 36 34 31 28 25 23 22 21 13
48 48 48 48 49 49 49 49 50 49 50 51 50 50 50 49 43 48 45 51 53 51 33 34 38 40 41 42 40 43 45 44 41 38 32 33 35 35 34 33 28 29 26 24 23 20 17
48 47 47 47 48 48 48 48 47 48 48 50 50 50 50 51 47 46 47 52 52 47 21 31 38 42 42 39 40 42 44 43 40 38 34 34 34 35 35 33 32 30 29 26 24 20 16
47 47 47 47 47 47 46 46 46 46 47 48 48 48 49 49 49 49 50 51 46 32 21 28 36 40 40 41 41 43 44 45 44 42 39 36 35 37 37 37 37 31 27 23 19 18 16
45 46 44 44 45 45 45 45 44 44 45 46 47 48 50 49 44 49 49 45 31 24 27 23 29 40 40 39 40 40 42 41 40 37 37 37 34 34 33 34 34 32 25 21 17 16 18
45 43 46 45 44 44 45 45 44 43 43 43 44 46 47 47 50 49 44 34 23 24 24 26 26 36 36 39 39 40 41 40 42 40 35 34 33 33 35 34 33 30 22 22 20 18 18
42 42 43 44 45 44 42 42 44 43 43 42 43 42 45 46 48 47 38 26 23 26 28 27 24 22 30 35 37 39 39 39 40 41 37 35 34 36 35 35 35 33 28 29 28 30 27
38 40 42 43 43 42 40 42 43 42 42 43 38 39 40 44 47 44 33 25 28 31 32 31 24 24 26 27 31 32 33 36 38 41 42 39 34 38 35 33 35 34 31 29 32 25 24
38 40 40 42 42 40 40 42 42 42 42 42 37 32 39 45 46 38 27 28 28 30 29 31 30 27 27 24 20 27 29 31 33 38 42 40 38 35 38 37 34 37 36 34 34 31 26
37 37 40 41 42 42 41 41 42 42 41 40 35 26 39 46 33 32 29 30 30 29 30 28 34 32 29 26 23 25 29 30 28 33 36 40 37 32 34 34 33 37 38 33 30 27 30
38 38 37 40 41 42 42 42 41 41 40 36 30 30 38 42 26 28 29 31 30 28 27 31 32 33 32 32 25 23 24 30 32 30 28 38 35 29 30 33 33 34 33 36 35 32 29
38 38 37 36 40 42 42 41 41 40 40 33 28 17 28 35 34 29 27 27 28 30 28 27 28 32 31 32 32 27 27 28 29 29 36 36 34 31 26 25 29 29 32 34 35 30 29
39 39 39 39 38 39 41 42 40 40 39 32 26 22 25 23 20 26 29 30 26 26 26 27 25 25 29 27 31 30 30 27 26 29 34 35 31 32 33 32 32 31 30 29 31 33 29
39 39 38 39 39 38 39 40 39 40 39 31 25 22 27 26 24 26 25 23 24 23 26 27 27 24 26 26 29 29 32 30 27 28 27 35 30 32 30 32 32 30 30 32 31 29 31
39 39 39 39 39 39 39 39 40 39 38 31 28 30 23 18 18 17 18 23 27 29 30 26 26 29 26 26 30 31 35 36 36 34 30 32 31 29 26 29 30 27 29 28 29 29 27
40 39 39 39 39 39 39 39 39 39 38 30 29 29 22 16 19 18 18 18 23 23 25 29 31 31 29 30 33 34 32 32 35 35 35 32 31 30 27 29 20 23 29 29 28 28 28
41 41 40 40 40 39 39 39 39 39 38 31 32 26 22 16 16 16 16 17 17 17 18 22 24 30 33 30 28 27 25 28 27 31 30 33 30 27 24 24 24 23 25 25 25 22 27
41 41 41 41 41 40 40 40 40 39 39 36 32 31 27 20 18 18 17 19 18 18 22 24 32 36 35 33 29 22 19 19 20 27 35 33 31 27 26 22 19 19 22 27 25 20 23
42 41 40 40 41 41 41 41 41 40 39 38 33 32 28 24 24 23 20 19 26 28 25 24 30 34 35 30 26 24 21 21 18 20 25 29 29 25 24 22 24 25 24 26 19 15 22
41 41 41 40 41 42 42 42 41 41 39 39 36 35 29 27 25 24 23 22 25 26 23 25 26 33 32 27 26 26 26 24 22 24 23 24 23 24 26 24 19 27 26 21 22 23 23
41 42 41 41 40 41 42 42 42 41 40 40 35 36 34 30 26 27 26 28 29 27 24 31 27 28 27 30 28 26 25 28 26 22 32 26 28 27 27 24 27 27 25 27 25 23 23